Temperature
6 5 5 6 6 6 6 6 7 7 7 7 6 6 6 7 7 7 7 8 8 8 8 8 8 8 8 8 8 8 8 8 8 8 8 9 9 9 9 9 9 9 9 9
5 5 6 7 7 6 6 6 6 7 7 7 6 5 6 6 6 7 7 7 8 8 8 8 8 8 8 8 8 8 8 8 8 8 8 8 8 8 8 8 8 8 9 9
6 6 7 7 7 7 6 6 6 6 6 6 5 6 6 6 6 6 7 7 7 7 7 7 7 7 7 7 7 7 7 7 7 7 7 7 7 7 8 8 8 8 8 8
5 6 7 6 6 7 6 7 7 6 5 5 5 6 6 6 5 5 6 6 7 7 7 7 7 7 7 7 6 6 6 6 6 6 7 7 7 7 7 7 7 7 7 7
6 6 6 6 6 7 6 6 6 6 5 4 4 5 5 5 6 6 6 6 7 7 7 6 6 6 6 6 6 6 6 6 6 6 6 6 6 6 6 6 6 7 7 7
6 6 6 6 6 6 6 5 5 4 4 5 5 4 5 5 6 6 6 6 7 7 6 6 6 6 6 6 5 5 5 6 6 6 6 5 6 6 6 6 6 6 6 6
5 6 6 6 6 6 6 5 4 5 4 5 5 4 5 6 6 6 6 6 6 6 6 6 6 5 5 5 5 5 5 5 5 5 5 5 5 5 5 5 5 5 6 6
5 5 6 6 6 6 5 5 5 6 5 4 4 4 5 6 5 6 6 6 6 6 6 6 5 5 5 5 5 4 4 5 5 5 5 5 5 5 5 5 5 5 5 5
5 5 6 6 6 6 5 4 5 4 4 4 4 4 5 5 5 5 5 5 6 6 6 5 5 5 5 4 4 4 4 4 4 5 5 5 4 4 4 5 5 4 5 5
4 4 5 5 6 5 6 4 3 4 5 5 5 5 5 6 6 5 4 5 5 6 6 6 5 5 5 4 4 4 4 4 4 4 4 4 4 4 4 4 4 4 4 4
4 4 4 5 5 5 5 5 4 3 4 4 5 6 5 5 5 4 4 5 5 6 6 6 5 5 4 4 4 4 4 4 4 4 4 4 4 4 4 4 4 4 4 4
4 3 3 4 5 5 5 5 4 4 4 3 3 5 6 5 4 4 5 5 5 6 6 5 5 5 5 4 4 4 4 4 4 3 3 4 4 4 4 4 4 4 4 4
4 3 4 5 5 4 5 4 4 4 3 2 3 5 5 4 4 5 5 5 5 5 5 5 5 5 4 4 4 4 3 3 3 3 3 3 3 3 3 3 3 3 3 3
4 3 4 5 5 5 4 4 4 3 3 3 3 4 5 5 4 4 5 5 5 5 5 5 5 5 4 4 4 4 3 3 3 3 3 3 3 3 3 3 3 3 3 3
4 3 3 3 3 3 4 4 3 3 4 3 4 3 5 4 4 4 5 5 5 5 5 5 5 5 4 4 4 4 3 3 3 3 3 3 3 3 3 3 3 3 3 3
2 3 3 3 4 3 3 4 4 4 4 4 4 4 5 5 5 4 4 4 4 5 5 5 5 5 4 4 4 4 3 3 3 3 2 2 2 2 2 2 2 2 2 2
1 2 3 3 3 4 4 4 4 3 3 3 4 5 4 4 3 4 4 5 5 5 5 5 5 5 4 4 4 3 3 3 3 2 2 2 2 2 2 2 2 2 2 2
1 2 2 2 3 5 6 5 4 4 4 3 4 4 3 4 5 5 5 5 5 5 5 5 5 5 4 4 4 3 3 3 2 2 2 2 1 1 1 1 1 1 1 1
1 2 2 2 2 4 5 5 4 4 4 4 3 4 4 4 4 5 6 6 5 5 5 5 5 4 4 4 3 3 3 3 2 2 2 1 1 1 1 1 1 1 1 1
1 1 2 2 3 4 6 5 5 5 5 5 4 3 3 3 3 4 6 6 6 5 5 5 5 4 4 4 3 3 3 3 2 2 2 1 1 1 1 1 0 0 0 0
1 1 1 2 2 3 4 4 5 5 6 6 5 5 4 3 4 6 6 6 6 5 5 5 4 4 4 3 3 3 3 3 2 2 2 1 1 1 1 0 0 -0 -0 -0
1 1 1 1 2 3 4 3 4 5 6 6 6 6 5 6 6 6 6 6 5 5 5 5 4 4 4 3 3 3 3 2 2 2 2 1 1 1 0 0 -0 -0 -1 -1
1 2 2 2 4 5 5 5 6 6 6 6 6 6 6 5 5 5 5 5 5 5 5 4 4 4 3 3 3 3 2 2 2 2 1 1 1 1 0 -0 -0 -0 -1 -1
0 0 1 1 2 3 5 5 6 6 6 6 6 5 5 5 5 5 5 5 5 4 4 4 4 3 3 3 2 2 2 2 1 1 1 1 1 0 0 -0 -1 -1 -1 -2
1 -0 -0 1 2 3 5 6 7 7 6 6 6 5 5 5 5 5 5 5 4 4 4 4 3 3 3 3 2 2 2 1 1 1 1 1 0 -0 -0 -0 -1 -1 -1 -2
0 1 1 3 4 3 5 7 6 6 6 5 5 5 5 4 4 4 4 4 4 4 4 3 3 3 3 2 2 2 1 1 1 1 0 0 -0 -1 -1 -1 -1 -1 -2 -2
Wind_Speed
4 5 3 2 3 4 4 3 1 1 1 1 3 7 9 5 3 4 4 4 4 4 3 2 3 4 5 6 6 7 6 7 5 4 3 3 3 3 3 3 4 4 3 3
5 2 1 1 3 4 3 3 1 2 2 0 3 7 7 5 4 4 4 4 4 2 2 3 3 4 5 5 6 6 6 7 6 4 4 3 3 3 3 3 4 4 4 3
4 0 0 3 3 3 2 2 1 1 3 2 3 6 4 2 1 2 3 3 3 3 2 3 4 4 5 6 6 6 7 7 6 6 4 3 3 3 3 3 3 4 4 3
3 2 3 4 3 3 0 1 2 1 2 3 2 4 6 3 4 4 5 4 3 3 2 2 3 4 5 5 6 6 6 6 6 6 4 3 3 4 4 4 4 4 4 3
2 2 3 3 1 2 2 2 2 2 2 2 0 2 7 2 4 5 5 5 4 3 2 3 3 3 4 5 5 5 6 6 6 6 4 3 3 4 4 4 4 4 3 3
2 1 1 1 1 2 2 4 4 4 3 2 3 4 7 4 6 5 4 4 5 3 3 3 3 2 3 4 4 5 5 6 6 6 5 4 4 5 5 5 4 4 3 3
4 3 2 1 2 3 4 4 3 3 2 5 2 4 9 6 5 6 6 6 5 4 3 3 3 3 4 5 5 5 5 6 6 6 6 5 5 5 5 5 5 5 4 3
2 3 2 1 1 1 1 4 4 3 4 4 2 6 7 5 4 4 4 5 4 4 4 4 4 4 4 4 4 5 5 6 6 6 6 6 5 4 4 4 4 5 4 4
2 2 2 0 0 3 3 2 3 3 1 3 5 7 7 2 3 3 3 3 4 4 4 4 4 4 4 4 4 4 5 5 6 6 6 6 6 5 5 5 4 4 4 4
2 1 2 2 1 2 2 4 3 2 1 4 6 5 5 4 5 4 5 5 5 4 4 4 4 4 3 3 4 4 4 4 5 5 5 5 6 6 5 5 5 5 5 4
1 1 3 1 3 4 3 2 3 3 3 3 4 7 5 5 5 6 7 6 6 5 5 4 4 3 3 3 3 3 4 4 5 5 5 5 6 5 5 5 5 5 4 4
1 2 3 5 3 2 4 5 5 3 4 4 3 7 4 5 5 6 7 6 5 5 4 4 4 3 2 3 3 3 4 4 5 5 5 5 5 5 5 5 5 5 4 4
2 2 2 4 3 0 3 4 5 3 3 4 4 8 2 2 3 4 4 5 4 4 4 3 3 3 3 3 3 3 4 4 4 4 5 5 5 5 5 5 5 4 4 4
3 3 5 6 5 3 4 5 6 5 4 5 9 11 9 7 7 6 5 5 5 5 5 4 4 4 4 4 3 3 4 4 4 4 4 5 5 5 5 5 5 4 4 4
3 3 5 7 7 6 7 8 9 11 9 9 9 9 14 9 8 7 6 5 5 5 5 5 5 5 4 4 4 3 4 3 3 3 4 5 5 5 5 5 5 4 4 4
1 2 3 5 5 6 9 11 12 12 10 13 13 15 13 9 6 6 6 6 7 7 6 6 5 5 5 5 4 4 4 3 3 3 4 5 5 5 5 5 5 4 4 4
1 1 2 5 6 5 8 10 11 7 8 9 12 12 7 6 7 8 7 7 8 8 7 7 7 7 6 5 5 5 4 3 2 3 4 4 4 4 5 5 4 5 5 4
4 2 1 4 5 6 7 2 7 7 8 11 10 10 7 8 7 7 7 7 8 7 7 7 6 6 5 4 4 3 2 2 2 3 3 4 4 4 4 4 4 4 4 4
5 5 2 1 4 9 8 4 5 6 7 9 12 11 8 5 4 5 5 6 7 7 7 6 6 5 4 4 4 3 2 2 2 3 4 4 3 4 4 4 4 4 3 3
3 3 2 2 3 7 6 1 3 3 6 5 7 8 5 1 1 5 4 3 5 5 5 4 4 3 4 4 3 3 3 3 4 4 4 4 3 3 3 4 4 3 3 3
3 3 5 6 7 10 7 2 4 2 6 2 5 6 5 6 7 5 4 4 4 4 4 4 4 4 5 4 4 4 4 5 5 4 3 3 3 3 3 3 3 3 3 3
8 7 7 6 7 10 5 6 7 8 3 2 4 5 6 8 7 6 5 5 5 4 4 3 4 5 4 3 4 5 6 5 3 3 3 3 3 3 3 2 3 3 2 3
9 9 6 10 11 6 6 8 6 3 5 5 4 6 6 7 7 7 6 6 5 5 5 4 4 5 4 4 5 6 6 3 2 2 3 4 4 3 3 3 3 3 2 2
6 5 5 8 12 11 11 9 9 8 8 8 7 6 6 8 8 8 7 6 5 5 5 4 4 5 5 4 5 6 4 3 3 3 4 3 3 4 3 3 3 3 3 3
8 6 5 9 11 9 10 11 11 9 7 7 7 7 7 8 9 8 7 7 6 6 5 4 5 6 6 5 5 5 3 3 3 4 4 3 3 4 4 4 4 4 4 5
8 10 9 12 11 8 9 7 6 7 8 8 7 7 6 7 9 8 7 7 6 6 5 4 5 6 6 5 5 4 4 4 3 3 4 3 3 3 3 4 5 7 7 9
Wind_Direction
39 72 90 138 143 147 137 128 149 280 335 8 249 265 273 273 250 253 263 272 274 277 293 341 357 357 354 352 353 346 342 339 342 336 329 322 319 321 325 329 336 333 328 323
60 60 255 121 106 102 108 113 25 337 13 4 293 282 270 254 233 232 240 250 255 278 325 339 350 358 353 344 344 344 343 338 337 327 312 292 289 296 303 317 335 339 337 335
98 250 143 103 94 99 76 149 182 287 349 26 339 310 292 289 261 255 245 236 238 231 265 311 333 339 341 341 339 339 336 335 335 329 321 318 321 317 319 326 325 335 338 330
63 23 79 85 77 116 118 165 152 99 35 322 30 298 287 276 283 257 251 248 246 248 255 293 316 329 327 324 330 334 334 336 334 334 330 321 315 302 301 308 307 317 327 321
43 29 67 75 48 123 166 90 98 94 109 338 325 216 283 300 270 262 254 251 251 245 245 266 282 297 313 323 330 333 336 337 337 337 332 321 309 298 300 310 315 318 317 316
27 6 67 85 43 84 110 66 56 52 64 297 228 192 276 245 232 256 259 258 249 242 251 265 286 309 321 327 330 334 341 337 337 341 338 324 307 304 308 312 314 313 310 308
8 360 6 57 62 38 73 82 32 360 352 257 203 210 251 246 228 228 245 252 243 233 239 266 289 304 309 315 324 330 336 332 335 340 338 329 317 306 298 295 297 298 299 301
55 316 314 18 152 157 113 128 152 209 243 283 258 238 252 247 249 242 242 244 236 237 245 254 263 271 284 297 312 323 327 326 331 334 331 328 322 314 310 303 294 293 288 287
131 275 317 293 211 137 130 147 158 140 237 278 268 276 293 242 261 255 253 250 244 244 246 254 264 269 278 290 300 309 316 319 325 326 325 325 324 320 315 313 308 299 292 290
145 264 296 306 79 34 145 147 114 135 220 279 290 273 257 268 267 271 262 255 254 252 251 258 265 266 273 281 295 305 305 310 316 322 321 323 320 317 314 312 311 308 304 299
116 176 308 337 195 190 146 151 156 155 176 203 285 277 230 223 241 254 259 252 249 250 250 257 267 266 269 282 291 300 307 314 319 321 318 319 317 317 318 315 312 310 307 303
128 126 270 261 256 203 188 189 164 176 225 204 236 271 270 225 248 251 258 257 248 249 254 257 260 263 272 282 292 299 306 310 311 315 317 318 319 321 324 321 317 317 311 308
148 121 343 339 340 268 230 206 185 165 157 190 215 264 286 291 286 274 264 269 266 260 262 263 259 256 262 271 281 290 296 301 311 320 322 326 329 330 327 324 324 323 321 323
127 166 198 223 241 214 233 217 187 175 199 226 232 259 280 288 292 292 277 265 263 260 258 258 259 256 257 261 269 278 290 298 314 325 325 326 325 325 322 324 329 331 329 327
120 232 247 256 260 251 243 237 211 212 216 225 249 252 268 268 259 265 265 258 258 263 264 256 257 258 256 263 273 276 285 299 314 321 321 320 321 325 330 332 332 334 338 335
104 241 292 286 269 258 260 247 229 230 233 242 260 272 269 269 252 255 257 249 253 258 258 258 257 257 253 252 259 269 275 287 303 310 312 318 326 333 337 336 334 339 342 341
183 189 309 286 308 314 271 238 209 207 210 208 235 248 269 276 261 254 250 244 245 252 251 248 248 246 246 243 239 245 255 274 290 297 307 314 320 327 328 333 341 342 341 345
166 167 225 293 335 265 251 211 188 209 233 217 234 254 260 256 267 259 243 241 250 250 250 250 247 246 242 233 232 238 244 254 269 288 301 308 314 317 323 335 340 337 336 341
173 168 203 257 282 281 287 235 179 198 264 222 229 252 267 282 313 287 243 230 237 239 242 244 242 239 229 222 220 216 237 247 263 280 290 297 304 311 320 327 329 329 334 336
133 149 182 207 250 259 263 219 167 131 280 237 205 235 252 137 287 274 273 254 252 251 242 241 240 226 223 224 200 203 234 246 256 265 274 284 294 298 300 303 310 316 322 322
152 182 206 219 244 266 257 197 132 184 258 246 200 220 208 201 224 260 281 270 262 258 254 240 229 228 231 214 191 215 235 246 254 262 272 281 284 284 283 293 302 311 317 326
189 188 200 191 218 255 217 148 188 225 269 241 224 227 226 236 257 271 268 266 268 267 265 248 237 246 238 204 198 228 243 251 255 257 265 273 278 281 289 286 297 310 316 321
209 201 197 202 221 249 199 212 237 240 250 252 242 246 240 249 260 266 264 264 262 256 254 247 238 250 246 217 209 232 249 247 245 254 263 271 276 273 271 267 279 300 307 311
249 208 218 254 261 256 252 252 256 246 243 251 252 257 250 253 261 266 264 262 258 256 249 241 236 245 253 239 229 235 245 228 228 249 261 266 267 274 274 268 262 267 272 280
231 191 222 255 270 282 265 243 244 247 246 250 254 248 244 249 259 257 256 255 251 251 247 232 230 241 250 243 240 242 233 213 230 248 258 264 261 266 272 269 257 257 251 254
206 201 209 243 241 232 258 249 233 236 248 250 255 263 254 240 251 254 253 251 250 249 243 238 238 242 250 244 244 242 224 209 220 246 255 258 262 266 268 279 290 275 271 278
Height
1492 1497 1501 1501 1501 1503 1505 1507 1508 1507 1506 1507 1507 1505 1501 1499 1500 1499 1498 1498 1498 1498 1498 1498 1497 1496 1495 1493 1491 1490 1488 1486 1485 1483 1482 1480 1479 1479 1478 1478 1478 1478 1478 1478
1498 1501 1500 1500 1501 1503 1505 1508 1509 1508 1506 1507 1507 1504 1498 1497 1496 1496 1496 1495 1495 1495 1495 1495 1495 1493 1492 1491 1489 1487 1485 1484 1482 1480 1478 1477 1476 1475 1474 1474 1473 1473 1473 1473
1500 1502 1499 1500 1502 1504 1506 1509 1509 1509 1509 1508 1509 1503 1498 1495 1494 1494 1494 1493 1493 1493 1493 1493 1492 1491 1490 1488 1487 1485 1483 1481 1479 1477 1475 1474 1472 1471 1470 1469 1469 1468 1468 1468
1502 1501 1501 1502 1504 1504 1508 1507 1508 1509 1513 1515 1513 1512 1499 1496 1494 1493 1492 1491 1491 1491 1491 1491 1490 1489 1488 1486 1484 1483 1481 1479 1477 1475 1472 1471 1469 1467 1466 1465 1464 1464 1464 1463
1504 1503 1503 1504 1505 1505 1507 1507 1509 1511 1514 1518 1516 1517 1503 1497 1494 1491 1489 1489 1489 1489 1490 1489 1488 1487 1486 1484 1482 1480 1478 1476 1474 1472 1470 1468 1466 1464 1463 1462 1460 1459 1459 1459
1505 1504 1505 1505 1506 1506 1507 1510 1512 1515 1517 1518 1514 1517 1505 1497 1491 1488 1487 1487 1487 1487 1488 1487 1486 1485 1484 1482 1480 1478 1476 1474 1472 1470 1468 1465 1463 1461 1460 1458 1457 1456 1454 1454
1507 1506 1506 1506 1507 1508 1509 1515 1522 1519 1524 1518 1513 1514 1502 1488 1486 1486 1485 1485 1485 1485 1485 1485 1484 1483 1482 1480 1478 1476 1474 1472 1470 1468 1466 1463 1461 1459 1457 1455 1453 1452 1450 1449
1511 1513 1508 1507 1508 1509 1511 1514 1521 1520 1522 1518 1512 1510 1493 1484 1483 1483 1483 1483 1483 1483 1483 1483 1482 1481 1480 1478 1476 1474 1472 1470 1468 1466 1463 1461 1459 1457 1454 1452 1450 1448 1447 1446
1513 1513 1508 1507 1507 1508 1511 1515 1516 1522 1524 1522 1512 1503 1489 1482 1481 1481 1481 1481 1481 1481 1481 1481 1480 1479 1478 1476 1474 1472 1470 1468 1466 1464 1461 1459 1456 1454 1452 1449 1447 1445 1444 1443
1512 1514 1509 1508 1508 1509 1510 1513 1519 1521 1517 1513 1506 1502 1493 1482 1480 1480 1479 1479 1478 1479 1479 1478 1478 1477 1476 1474 1472 1470 1468 1466 1464 1461 1459 1457 1454 1452 1449 1447 1445 1443 1441 1440
1512 1515 1513 1510 1509 1509 1512 1513 1514 1519 1519 1518 1512 1497 1482 1480 1478 1479 1477 1476 1476 1476 1476 1476 1475 1475 1473 1472 1470 1468 1466 1464 1462 1459 1457 1454 1452 1450 1447 1445 1442 1440 1439 1438
1513 1516 1517 1511 1507 1506 1507 1509 1513 1516 1516 1520 1519 1500 1478 1477 1476 1476 1475 1474 1474 1474 1474 1474 1473 1472 1471 1469 1468 1466 1464 1462 1460 1457 1454 1452 1450 1447 1445 1443 1441 1439 1437 1436
1512 1516 1516 1510 1511 1509 1507 1506 1508 1511 1515 1519 1516 1495 1477 1476 1475 1474 1473 1472 1472 1472 1472 1471 1470 1469 1468 1467 1466 1464 1462 1460 1458 1455 1452 1450 1448 1445 1443 1441 1439 1437 1435 1434
1510 1514 1516 1511 1505 1505 1505 1504 1506 1509 1512 1511 1504 1489 1478 1476 1474 1472 1471 1471 1470 1470 1469 1468 1468 1467 1466 1465 1464 1462 1460 1458 1456 1453 1451 1448 1446 1444 1442 1440 1437 1435 1433 1432
1510 1513 1511 1509 1505 1505 1502 1500 1501 1501 1499 1499 1489 1487 1474 1472 1472 1470 1469 1468 1467 1467 1466 1466 1465 1464 1464 1463 1462 1460 1458 1456 1454 1452 1449 1447 1445 1443 1440 1438 1436 1434 1432 1430
1510 1512 1510 1506 1501 1501 1498 1493 1493 1493 1492 1490 1486 1479 1468 1468 1467 1466 1465 1465 1464 1463 1463 1463 1462 1462 1461 1460 1459 1458 1456 1454 1452 1450 1448 1445 1443 1441 1439 1436 1434 1432 1430 1428
1512 1512 1511 1507 1502 1497 1491 1481 1483 1484 1482 1482 1481 1472 1466 1466 1464 1463 1462 1461 1460 1460 1460 1459 1459 1459 1459 1458 1457 1455 1454 1452 1450 1448 1446 1444 1442 1439 1437 1435 1433 1431 1429 1427
1510 1511 1511 1509 1504 1496 1477 1472 1473 1475 1473 1473 1469 1465 1464 1462 1460 1459 1459 1458 1457 1457 1456 1456 1456 1456 1456 1455 1454 1453 1452 1450 1448 1446 1444 1442 1440 1438 1436 1433 1431 1429 1427 1425
1506 1508 1510 1510 1507 1492 1475 1470 1471 1473 1469 1463 1464 1462 1461 1460 1459 1456 1455 1454 1454 1454 1454 1454 1453 1453 1452 1452 1451 1450 1449 1447 1446 1444 1442 1440 1438 1436 1434 1432 1430 1428 1425 1423
1506 1507 1511 1509 1505 1492 1470 1467 1466 1470 1467 1457 1458 1458 1458 1459 1461 1456 1453 1452 1452 1452 1451 1451 1450 1450 1449 1449 1448 1447 1446 1444 1443 1442 1440 1439 1437 1435 1433 1431 1428 1426 1424 1422
1507 1508 1508 1507 1503 1485 1468 1466 1467 1472 1462 1455 1454 1455 1455 1456 1455 1453 1451 1450 1449 1449 1448 1448 1447 1446 1446 1445 1444 1444 1443 1441 1440 1439 1438 1436 1434 1433 1431 1429 1427 1425 1422 1420
1499 1502 1501 1501 1500 1483 1463 1464 1465 1460 1454 1453 1452 1453 1452 1451 1450 1449 1448 1447 1446 1446 1445 1445 1444 1443 1443 1442 1441 1440 1439 1439 1438 1436 1435 1433 1432 1430 1429 1427 1425 1423 1420 1418
1491 1487 1485 1483 1473 1460 1458 1456 1455 1454 1452 1451 1450 1450 1449 1448 1447 1446 1445 1444 1443 1442 1441 1441 1440 1439 1439 1438 1437 1436 1436 1435 1434 1433 1432 1430 1429 1428 1426 1424 1423 1421 1418 1416
1481 1478 1479 1475 1461 1456 1454 1452 1451 1451 1449 1448 1448 1447 1446 1444 1443 1442 1441 1440 1439 1438 1437 1437 1436 1435 1435 1434 1434 1433 1433 1432 1431 1429 1428 1427 1426 1425 1423 1422 1420 1418 1416 1414
1472 1474 1473 1468 1456 1451 1447 1446 1445 1445 1445 1444 1443 1442 1441 1439 1438 1437 1436 1435 1434 1434 1433 1433 1432 1431 1430 1430 1429 1429 1428 1428 1427 1426 1425 1424 1422 1421 1420 1418 1417 1415 1413 1412
1461 1462 1463 1454 1446 1446 1442 1441 1442 1441 1439 1439 1438 1436 1435 1435 1433 1432 1431 1430 1430 1429 1429 1428 1428 1427 1426 1426 1425 1425 1424 1424 1423 1422 1421 1420 1418 1417 1416 1414 1413 1411 1410 1408